AirNav   Air Wisconsin Airman Trainee
 
 504 users online  

21D Lake Elmo Airport
St Paul, Minnesota, USA

GOING TO ST PAUL?


FAA INFORMATION EFFECTIVE 28 MARCH 2019

Location

FAA Identifier: 21D
Lat/Long: 44-59-50.9729N / 092-51-20.4529W
44-59.849548N / 092-51.340882W
44.9974925 / -92.8556814
(estimated)
Elevation: 932.9 ft. / 284.3 m (surveyed)
Variation: 01E (2010)
From city: 9 miles E of ST PAUL, MN
Time zone: UTC -5 (UTC -6 during Standard Time)
Zip code: 55082

Airport Operations

Airport use: Open to the public
Activation date: 10/1951
Control tower: no
ARTCC: MINNEAPOLIS CENTER
FSS: PRINCETON FLIGHT SERVICE STATION
NOTAMs facility: 21D (NOTAM-D service available)
Attendance: APR-OCT 0700-1900, NOV-MAR 0700-1700
Wind indicator: lighted, ADDITIONAL LIGHTED WIND-T
Segmented circle: no
Lights: MIRL RY 14/32 PRESET TO LOW, TO INCR INTST AND ACTVT REIL RYS 14 & 32 AND PAPI RY 32 - CTAF.
Beacon: white-green (lighted land airport)
Operates sunset to sunrise.

Airport Communications

CTAF/UNICOM: 122.8
WX AWOS-3: 120.075 (651-779-5949)
MINNEAPOLIS APPROACH: 121.2
MINNEAPOLIS DEPARTURE: 121.2
CLEARANCE DELIVERY: 118.625
WX ASOS at STP (9 nm SW): PHONE 651-298-1410
WX AWOS-3 at SGS (11 nm SW): 119.425 (651-457-8120)
WX AWOS-3 at RNH (16 nm NE): 120.0 (715-246-3202)
WX ASOS at MSP (17 nm SW): PHONE 612-713-4174
WX AWOS-3 at ANE (17 nm NW): PHONE 763-780-9025
WX AWOS-3 at OEO (20 nm N): 119.925 (715-294-3845)

Nearby radio navigation aids

VOR radial/distance  VOR name  Freq  Var
MSPr067/17.3MINNEAPOLIS VOR/DME115.3002E
GEPr106/23.7GOPHER VORTAC117.3006E
FGTr026/26.0FARMINGTON VORTAC115.7006E
FCMr067/27.0FLYING CLOUD VOR/DME117.7001E

 
NDB name  Hdg/Dist  Freq  Var  ID
HOPEY023/8.340003EPPI .--. .--. ..
CAMBRIDGE152/37.735001ECBG -.-. -... --.

Airport Services

Fuel available: 100LL
SELF SVC FUEL AVBL 24 HR WITH CREDIT CARD.
Parking: hangars and tiedowns
Airframe service: MAJOR
Powerplant service: MAJOR
Bottled oxygen: NONE
Bulk oxygen: NONE

Runway Information

Runway 14/32

Dimensions: 2849 x 75 ft. / 868 x 23 m
Surface: asphalt, in fair condition
Weight bearing capacity: 
Single wheel: 11.0
Runway edge lights: medium intensity
RUNWAY 14  RUNWAY 32
Latitude: 44-59.974828N44-59.629163N
Longitude: 092-51.651227W092-51.204762W
Elevation: 922.8 ft.926.0 ft.
Gradient: 0.1%0.1%
Traffic pattern: leftleft
Runway heading: 136 magnetic, 137 true316 magnetic, 317 true
Markings: nonprecision, in good conditionbasic, in good condition
Visual slope indicator: 4-light PAPI on right (3.00 degrees glide path)
Runway end identifier lights: yesyes
Touchdown point: yes, no lightsyes, no lights
Obstructions: 13 ft. road, 440 ft. from runway, 260 ft. right of centerline, 18:1 slope to clear25 ft. road, 353 ft. from runway, 264 ft. right of centerline, 10:1 slope to clear

Runway 4/22

Dimensions: 2496 x 75 ft. / 761 x 23 m
Surface: asphalt, in good condition
Weight bearing capacity: 
Single wheel: 13.0
RUNWAY 4  RUNWAY 22
Latitude: 44-59.744773N45-00.062878N
Longitude: 092-51.424563W092-51.058333W
Elevation: 923.9 ft.932.9 ft.
Gradient: 0.4%0.4%
Traffic pattern: leftleft
Runway heading: 038 magnetic, 039 true218 magnetic, 219 true
Markings: nonprecision, in good conditionbasic, in good condition
Touchdown point: yes, no lightsyes, no lights
Obstructions: 64 ft. trees, 1474 ft. from runway, 114 ft. right of centerline, 19:1 slope to clearnone

Airport Ownership and Management from official FAA records

Ownership: Publicly-owned
Owner: METROPOLITAN AIRPORT CMSN
6040 28TH AVENUE SO.
MINNEAPOLIS, MN 55450
Phone 612-726-8100
Manager: JOE HARRIS
644 BAYFIELD STREET
ST PAUL, MN 55107
Phone 651-224-4306
MGR EMAIL: JOE.HARRIS@MSPMAC.ORG

Airport Operational Statistics

Aircraft based on the field: 184
Single engine airplanes: 178
Multi engine airplanes: 4
Helicopters: 2
    
Aircraft operations: avg 73/day *
55% transient general aviation
40% local general aviation
4% air taxi
<1% military
* for 12-month period ending 31 October 2016

Additional Remarks

A30A-32 DSGND AS CALM WND RWY.
ULTRALIGHT OPNS PROHIBITED.
FOR NOISE ABATEMENT PROCEDURES, WWW.MACNOISE.COM/PILOTS. ACFT PLEASE FOLLOW VOLUNTARY NOISE ABATEMENT PROCEDURES.
DEER, BIRDS & WILDLIFE ON & INVOF ARPT.

Instrument Procedures

NOTE: All procedures below are presented as PDF files. If you need a reader for these files, you should download the free Adobe Reader.

NOT FOR NAVIGATION. Please procure official charts for flight.
FAA instrument procedures published for use from 28 March 2019 at 0901Z to 25 April 2019 at 0900Z.

 
STARs - Standard Terminal Arrivals
AGUDE FIVE   download (249KB)
 
IAPs - Instrument Approach Procedures
RNAV (GPS) RWY 32   download (236KB)
NDB RWY 04   download (280KB)
NOTE: Special Alternate Minimums apply   download (25KB)
NOTE: Special Take-Off Minimums/Departure Procedures apply   download

Other nearby airports with instrument procedures:

KSTP - St Paul Downtown Airport Holman Field (9 nm SW)
KSGS - South St Paul Municipal Airport-Richard E Fleming Field (11 nm SW)
KRNH - New Richmond Regional Airport (16 nm NE)
KMSP - Minneapolis-St Paul International/Wold-Chamberlain Airport (17 nm SW)
KANE - Anoka County-Blaine Airport (Janes Field) (17 nm NW)
KOEO - L O Simenstad Municipal Airport (20 nm N)
 
Loc | Ops | Rwys | IFR | FBO | Links
Com | Nav | Svcs | Stats | Notes
Area around 21D (Lake Elmo Airport)
 
Road maps at: MapQuest Bing Google
 
Aerial photo
WARNING: Photo may not be current or correct
Aerial photo of 21D (Lake Elmo Airport)
Photo by Ed Wells
Photo taken 10-Oct-2010
looking northeast.

Do you have a better or more recent aerial photo of Lake Elmo Airport that you would like to share? If so, please send us your photo.

 
Sectional chart

 
Airport distance calculator
Flying to Lake Elmo Airport? Find the distance to fly.

From to 21D

Sunrise and sunset
Times for 23-Apr-2019
 Local
(UTC-5)
 Zulu
(UTC)
Morning civil twilight05:4310:43
Sunrise06:1411:14
Sunset20:0501:05
Evening civil twilight20:3701:37

Current date and time
Zulu (UTC)  23-Apr-2019 10:43:00
Local (UTC-5)  23-Apr-2019 05:43:00
 
METAR
K21D 231016Z AUTO 33004KT 1 1/2SM BR 02/02 A3013 RMK AO2
KSTP 
9nm SW 
230953Z AUTO 31006KT 10SM CLR 02/01 A3014 RMK AO2 SLP209 T00170006
KSGS 
15nm SW 
231015Z AUTO 34004KT 10SM CLR 03/02 A3012 RMK AO2 T00250024
KRNH 
16nm NE 
231015Z AUTO 35004KT 2 1/2SM BR OVC002 03/03 A3011 RMK AO2 VIS 1 1/2V3 T00260025
KANE 
17nm NW 
231015Z AUTO 32003KT 10SM CLR 02/02 A3012 RMK AO2
KMSP 
17nm SW 
230953Z 34005KT 10SM CLR 03/01 A3013 RMK AO2 SLP208 T00280011
KOEO 
20nm N 
231015Z AUTO 31004KT 1/2SM OVC002 02/02 A3015 RMK AO2 T00230023 PWINO
TAF
KRNH 
16nm NE 
230759Z 2308/2406 34004KT P6SM SKC TEMPO 2308/2312 1SM BR OVC002 FM231800 28006KT P6SM SKC FM240100 VRB03KT P6SM SCT180
KMSP 
17nm SW 
230848Z 2309/2412 34005KT P6SM SKC FM231700 26007KT P6SM SKC FM240200 18005KT P6SM SCT180
NOTAMs
Click for the latest NOTAMs
NOTAMs are issued by the DoD/FAA and will open in a separate window not controlled by AirNav.

 

 
 

Would you like to see your business listed on this page?

 If your business provides an interesting product or service to pilots, flight crews, aircraft, or users of the Lake Elmo Airport, you should consider listing it here.  To start the listing process, click on the button below
 
Add a business
 

Other Pages about Lake Elmo Airport

www.metroairports.org/...
 
Update a link
 
Copyright © AirNav, LLC. All rights reserved. Privacy Policy  Contact